596  
AXUS43 KGID 150002  
MISGRI  
 
GID CWA HOURLY WEATHER ROUNDUP  
NATIONAL WEATHER SERVICE HASTINGS NE  
700 PM CDT FRI MAY 14 2021  
 
NOTE: "FAIR" INDICATES FEW OR NO CLOUDS BELOW 12,000 FEET WITH NO  
SIGNIFICANT WEATHER AND/OR OBSTRUCTIONS TO VISIBILITY.  
   
..SOUTH CENTRAL NEBRASKA
 
 
 
CITY SKY/WX TMP DP RH WIND PRES REMARKS  
GRAND ISLAND CLOUDY 66 53 63 S10 30.03F  
KEARNEY PTSUNNY 66 55 67 SE13 30.03F  
HASTINGS CLOUDY 66 54 65 SE6 30.05F  
ORD PTSUNNY 68 52 56 S6 30.00F  
YORK CLOUDY 66 54 63 S12 30.05S  
AURORA CLOUDY 67 54 63 S8 30.05F  
LEXINGTON MOSUNNY 67 54 61 SE13 30.03S  
HOLDREGE MOSUNNY 67 54 62 SE10 30.03F  
HEBRON CLOUDY 67 56 67 CALM 30.06F  
   
..NEBRASKA PANHANDLE
 
 
 
CITY SKY/WX TMP DP RH WIND PRES REMARKS  
CHADRON LGT RAIN 58 47 66 E6 30.06F  
ALLIANCE PTSUNNY 64 40 41 E7 30.06F  
SCOTTSBLUFF PTSUNNY 61 49 64 E10 30.06F  
SIDNEY PTSUNNY 65 43 44 E15 30.04F  
   
..WESTERN AND NORTH CENTRAL NEBRASKA
 
 
 
CITY SKY/WX TMP DP RH WIND PRES REMARKS  
VALENTINE PTSUNNY 72 40 31 SW6 30.01S  
AINSWORTH CLOUDY 69 40 34 CALM 30.02S  
ONEILL PTSUNNY 68 47 46 SE8 30.02S  
BROKEN BOW PTSUNNY 66 54 65 SE6 30.02S  
IMPERIAL MOSUNNY 68 49 50 SE15 30.04R  
NORTH PLATTE MOSUNNY 69 51 52 SE10 30.03R  
MCCOOK MOSUNNY 67 52 58 E15 30.00F  
   
..EASTERN NEBRASKA
 
 
 
CITY SKY/WX TMP DP RH WIND PRES REMARKS  
NORFOLK PTSUNNY 70 51 51 E5 30.01F  
SO SIOUX CITY MOSUNNY 64 54 69 SE9 30.03F  
TEKAMAH MOSUNNY 67 52 58 SE10 30.04F  
COLUMBUS PTSUNNY 70 53 54 S12 30.02F  
ALBION PTSUNNY 69 53 56 S7 30.01F  
OMAHA EPPLEY PTSUNNY 69 52 54 S8 30.04F  
MILLARD CLOUDY 69 52 54 E3 30.05F  
LINCOLN PTSUNNY 68 54 60 S6 30.05F  
NEBRASKA CITY CLOUDY 69 51 52 SW8 30.05S  
BEATRICE CLOUDY 67 55 66 SW5 30.07S  
FALLS CITY CLOUDY 71 50 47 S12 30.05F  
   
..NORTHERN KANSAS
 
 
 
CITY SKY/WX TMP DP RH WIND PRES REMARKS  
GOODLAND PTSUNNY 70 54 56 NE5 30.00R  
HILL CITY PTSUNNY 70 56 61 E14 29.98F  
NORTON FAIR 68 55 64 E16 30.04F  
PHILLIPSBURG CLOUDY 70 54 56 NE10 30.02F  
OBERLIN CLOUDY 69 55 59 E17G23 30.04S  
SMITH CENTER CLOUDY 66 59 77 NE9 30.03F  
HAYS CLOUDY 71 58 63 SE9 29.97F  
RUSSELL CLOUDY 69 56 62 E9 29.97F  
CONCORDIA CLOUDY 67 56 67 SE6 30.03F  
SALINA CLOUDY 69 55 60 SE12 30.02F  
TOPEKA CLOUDY 69 49 48 S15G22 30.08F  
 
CLICK HERE TO GO TO PREVIOUS BULLETINS.

The Nexlab NE Page
The Nexlab KS Page Main Text Page